sat.trackr.live / text

‹ back to catalog

GHGSAT-C1

NORAD 46278 · 2020-061G

PAYLOAD ACTIVE UNKNOWN

§ Identity

Operator
Country
CA
Launch date
2020-09-03
Launch site
FRGUI
Launch vehicle
Mass (kg)
RCS (m²)

External: N2YO · Heavens-Above · Gunter

§ Orbital elements

Epoch: 2026-09-14T18:50:23.630208Z

Period
90.99 min
Inclination
97.2031°
Eccentricity
0.0001796
Mean motion
15.82568406 rev/d
Perigee alt
322.0 km
Apogee alt
324.4 km
Semi-major
6,701.3 km
B*
6.7435e-4
RAAN
346.3674°
Arg perigee
244.0802°
Mean anomaly
116.0283°
Rev number
33,758

§ Raw data

GHGSAT-C11 46278U 20061G   26257.78499572  .00142179  00000+0  67435-3 0  99902 46278  97.2031 346.3674 0001796 244.0802 116.0283 15.82568406337589

JSON: /api/v1/satellites/46278 · /tle

For live sub-satellite position, see the globe view (requires WebGL).

§ Visibility from observer

Set your observer location to see the next 7 days of passes ≥ 10°. The values pass through the URL so the page stays shareable.

No JS? Fill the form by hand. The geolocation button needs JavaScript.